FW7793 Weather Reports


Display with metric or nautical units.
time (UTC)temp
F
wind
direction
speed
MPH
gust
MPH
rain 1hr
in
rain 24hr
in
rain mn
in
humidity
%
barometer
mb
20260506190850 89 169 2.0 2.0 0.00 0.00 0.00 44 1010.6
20260506190346 89 176 1.0 1.0 0.00 0.00 0.00 44 1010.6
20260506185843 89 181 0.0 1.0 0.00 0.00 0.00 43 1010.8
20260506185340 89 223 3.0 3.0 0.00 0.00 0.00 44 1010.8
20260506184837 90 226 3.0 5.0 0.00 0.00 0.00 43 1010.9
20260506184334 90 207 3.0 5.0 0.00 0.00 0.00 42 1011.0
20260506183832 90 202 4.0 6.0 0.00 0.00 0.00 44 1010.9
20260506183326 90 183 2.0 3.0 0.00 0.00 0.00 43 1011.0
20260506182824 90 269 4.0 5.0 0.00 0.00 0.00 43 1011.0
20260506182321 88 185 3.0 3.0 0.00 0.00 0.00 46 1011.1
20260506181819 89 119 3.0 3.0 0.00 0.00 0.00 43 1011.3
20260506181316 89 154 1.0 2.0 0.00 0.00 0.00 44 1011.3
20260506180814 89 71 2.0 2.0 0.00 0.00 0.00 41 1011.3
20260506180309 88 188 2.0 2.0 0.00 0.00 0.00 48 1011.6
20260506175806 89 191 6.0 7.0 0.00 0.00 0.00 46 1011.5
20260506175306 89 168 2.0 2.0 0.00 0.00 0.00 43 1011.5
20260506174800 88 226 2.0 3.0 0.00 0.00 0.00 46 1011.8
20260506174257 88 146 3.0 3.0 0.00 0.00 0.00 43 1012.0
20260506173755 88 164 1.0 2.0 0.00 0.00 0.00 44 1012.2
20260506173251 88 131 4.0 9.0 0.00 0.00 0.00 46 1011.8
20260506172748 87 180 3.0 3.0 0.00 0.00 0.00 46 1012.2
20260506172245 87 114 3.0 5.0 0.00 0.00 0.00 45 1012.2
20260506171743 87 217 5.0 8.0 0.00 0.00 0.00 48 1012.2
20260506171239 86 24 2.0 3.0 0.00 0.00 0.00 47 1012.5
20260506170737 87 71 8.0 11.0 0.00 0.00 0.00 45 1012.4
20260506170233 87 178 3.0 5.0 0.00 0.00 0.00 47 1012.4
20260506165732 87 199 1.0 2.0 0.00 0.00 0.00 45 1012.6
20260506165229 86 171 3.0 7.0 0.00 0.00 0.00 50 1012.5
20260506164726 86 163 4.0 5.0 0.00 0.00 0.00 46 1012.7
20260506164223 85 161 2.0 2.0 0.00 0.00 0.00 49 1012.8
20260506163719 86 216 2.0 5.0 0.00 0.00 0.00 48 1013.0
20260506163214 86 145 4.0 5.0 0.00 0.00 0.00 49 1013.1
20260506162711 86 208 5.0 6.0 0.00 0.00 0.00 48 1012.9
20260506162208 86 183 0.0 1.0 0.00 0.00 0.00 49 1012.9
20260506161705 85 199 3.0 5.0 0.00 0.00 0.00 54 1013.2
20260506161202 85 104 1.0 1.0 0.00 0.00 0.00 49 1013.0
20260506160700 84 223 3.0 3.0 0.00 0.00 0.00 51 1013.1
20260506160156 85 122 6.0 7.0 0.00 0.00 0.00 48 1013.1
20260506155655 84 214 2.0 2.0 0.00 0.00 0.00 51 1013.2
20260506155152 84 146 4.0 6.0 0.00 0.00 0.00 51 1013.2
20260506153300 82 151 1.0 2.0 0.00 0.00 0.00 52 1013.3
20260506152756 83 142 2.0 2.0 0.00 0.00 0.00 53 1013.0
20260506152254 82 172 2.0 2.0 0.00 0.00 0.00 54 1013.0
20260506151753 82 169 1.0 2.0 0.00 0.00 0.00 52 1012.9
20260506151249 81 171 2.0 2.0 0.00 0.00 0.00 52 1013.3
20260506150745 81 158 4.0 6.0 0.00 0.00 0.00 55 1013.3
20260506150243 80 186 2.0 3.0 0.00 0.00 0.00 55 1013.2
20260506145740 81 195 3.0 3.0 0.00 0.00 0.00 55 1013.5
20260506145236 80 238 6.0 7.0 0.00 0.00 0.00 55 1013.2
20260506144734 79 180 3.0 5.0 0.00 0.00 0.00 56 1013.2
20260506144230 79 199 4.0 5.0 0.00 0.00 0.00 55 1013.0
20260506143728 79 211 3.0 3.0 0.00 0.00 0.00 56 1013.0
20260506143225 79 220 3.0 3.0 0.00 0.00 0.00 55 1013.0
20260506142724 79 179 1.0 2.0 0.00 0.00 0.00 57 1013.0
20260506142221 78 192 1.0 1.0 0.00 0.00 0.00 58 1012.7
20260506141719 78 152 1.0 2.0 0.00 0.00 0.00 61 1013.0
20260506141217 77 173 1.0 2.0 0.00 0.00 0.00 61 1012.8
20260506140715 77 198 3.0 5.0 0.00 0.00 0.00 62 1013.1
20260506140211 76 158 1.0 2.0 0.00 0.00 0.00 60 1013.2
20260506135708 76 166 1.0 1.0 0.00 0.00 0.00 63 1013.0
20260506135204 75 202 1.0 2.0 0.00 0.00 0.00 65 1012.9
20260506134701 75 117 1.0 2.0 0.00 0.00 0.00 64 1013.0
20260506134157 74 168 4.0 6.0 0.00 0.00 0.00 65 1012.7
20260506133655 73 198 3.0 5.0 0.00 0.00 0.00 70 1012.8
20260506133151 73 217 4.0 6.0 0.00 0.00 0.00 69 1012.6
20260506132649 73 173 1.0 1.0 0.00 0.00 0.00 71 1012.4
20260506132145 73 217 3.0 3.0 0.00 0.00 0.00 69 1012.4
20260506131643 72 176 1.0 2.0 0.00 0.00 0.00 73 1012.3
20260506131139 72 176 2.0 5.0 0.00 0.00 0.00 71 1012.7
20260506130636 71 189 1.0 2.0 0.00 0.00 0.00 74 1012.5
20260506130133 71 162 0.0 0.0 0.00 0.00 0.00 74 1012.3
20260506125632 71 176 1.0 1.0 0.00 0.00 0.00 75 1012.2
20260506125129 70 142 1.0 1.0 0.00 0.00 0.00 78 1012.1
20260506124627 70 150 2.0 2.0 0.00 0.00 0.00 79 1012.5
20260506124124 69 165 3.0 3.0 0.00 0.00 0.00 78 1012.4
20260506123622 68 132 1.0 2.0 0.00 0.00 0.00 82 1012.4
20260506123120 67 132 0.0 0.0 0.00 0.00 0.00 83 1012.6
20260506122617 66 179 1.0 2.0 0.00 0.00 0.00 83 1012.7
20260506122114 65 173 0.0 0.0 0.00 0.00 0.00 85 1012.5
20260506121612 65 137 0.0 1.0 0.00 0.00 0.00 86 1012.2
20260506121108 64 130 0.0 0.0 0.00 0.00 0.00 87 1012.3
20260506120606 63 143 0.0 0.0 0.00 0.00 0.00 89 1012.3
20260506120103 63 144 0.0 0.0 0.00 0.00 0.00 89 1012.3
20260506115602 62 144 0.0 0.0 0.00 0.00 0.00 91 1012.4
20260506115059 61 145 0.0 0.0 0.00 0.00 0.00 92 1012.0
20260506114556 61 145 0.0 0.0 0.00 0.00 0.00 94 1012.4
20260506114055 61 145 0.0 0.0 0.00 0.00 0.00 97 1012.2
20260506113552 60 145 0.0 0.0 0.00 0.00 0.00 98 1012.0
20260506113049 58 145 0.0 0.0 0.00 0.00 0.00 98 1012.1
20260506112546 58 146 0.0 0.0 0.00 0.00 0.00 97 1012.2
20260506112043 57 146 0.0 0.0 0.00 0.00 0.00 97 1012.0
20260506111541 57 146 0.0 0.0 0.00 0.00 0.00 97 1012.0
20260506111038 57 146 0.0 0.0 0.00 0.00 0.00 97 1011.8
20260506110536 57 146 0.0 0.0 0.00 0.00 0.00 97 1011.9
20260506110033 57 146 0.0 0.0 0.00 0.00 0.00 97 1012.0
20260506105529 57 146 0.0 0.0 0.00 0.00 0.00 97 1011.7
20260506105026 57 146 0.0 0.0 0.00 0.00 0.00 97 1011.5
20260506104524 57 146 0.0 0.0 0.00 0.00 0.00 97 1011.3
20260506104022 57 146 0.0 0.0 0.00 0.00 0.00 97 1011.3
20260506103519 57 146 0.0 0.0 0.00 0.00 0.00 97 1011.4
20260506103015 57 146 0.0 0.0 0.00 0.00 0.00 97 1011.1
20260506102514 57 146 0.0 0.0 0.00 0.00 0.00 97 1011.3
20260506102011 57 146 0.0 0.0 0.00 0.00 0.00 97 1011.1
20260506101507 57 146 0.0 0.0 0.00 0.00 0.00 97 1011.4
20260506101005 57 146 0.0 0.0 0.00 0.00 0.00 97 1011.5
20260506100503 57 146 0.0 0.0 0.00 0.00 0.00 96 1011.6
20260506100001 57 146 0.0 0.0 0.00 0.00 0.00 96 1011.4
20260506095459 57 146 0.0 0.0 0.00 0.00 0.00 96 1011.6
20260506094954 57 146 0.0 0.0 0.00 0.00 0.00 96 1011.3
20260506094453 57 146 0.0 0.0 0.00 0.00 0.00 96 1011.5
20260506093950 58 146 0.0 0.0 0.00 0.00 0.00 96 1011.4
20260506093449 58 146 0.0 0.0 0.00 0.00 0.00 96 1011.6
20260506092946 57 146 0.0 0.0 0.00 0.00 0.00 96 1011.7
20260506092444 58 146 0.0 0.0 0.00 0.00 0.00 96 1011.8
20260506091940 58 146 0.0 0.0 0.00 0.00 0.00 96 1011.6
20260506091438 58 146 0.0 0.0 0.00 0.00 0.00 96 1011.7
20260506090935 58 146 0.0 0.0 0.00 0.00 0.00 96 1011.4
20260506090433 58 146 0.0 0.0 0.00 0.00 0.00 96 1011.5
20260506085929 58 146 0.0 0.0 0.00 0.00 0.00 96 1011.4
20260506085426 58 146 0.0 0.0 0.00 0.00 0.00 96 1011.4
20260506084922 58 146 0.0 0.0 0.00 0.00 0.00 96 1011.4
20260506084420 58 146 0.0 0.0 0.00 0.00 0.00 96 1011.4
20260506083915 58 146 0.0 0.0 0.00 0.00 0.00 96 1011.3
20260506083413 58 146 0.0 0.0 0.00 0.00 0.00 95 1011.4
20260506082910 58 147 0.0 0.0 0.00 0.00 0.00 95 1011.6
20260506082407 58 146 0.0 0.0 0.00 0.00 0.00 95 1011.4
20260506081903 58 146 0.0 0.0 0.00 0.00 0.00 95 1011.3
20260506081401 58 146 0.0 0.0 0.00 0.00 0.00 95 1011.4
20260506080858 58 146 0.0 0.0 0.00 0.00 0.00 95 1011.6
20260506080355 58 146 0.0 0.0 0.00 0.00 0.00 95 1011.5
20260506073339 58 146 0.0 0.0 0.00 0.00 0.00 94 1011.2
20260506072836 59 146 0.0 0.0 0.00 0.00 0.00 94 1011.2
20260506072334 58 146 0.0 0.0 0.00 0.00 0.00 94 1011.1
20260506071831 58 146 0.0 0.0 0.00 0.00 0.00 94 1011.5
20260506071329 58 146 0.0 0.0 0.00 0.00 0.00 95 1011.4
20260506070825 58 147 0.0 0.0 0.00 0.00 0.00 94 1011.5
20260506070323 58 147 0.0 0.0 0.00 0.00 0.00 94 1011.4
20260506062300 59 146 0.0 0.0 0.00 0.00 0.00 93 1011.6
20260506061755 59 153 0.0 0.0 0.00 0.00 0.00 94 1011.5
20260506061253 59 152 0.0 0.0 0.00 0.00 0.00 94 1011.7
20260506060751 59 153 0.0 0.0 0.00 0.00 0.00 94 1011.6
20260506060249 59 153 0.0 0.0 0.00 0.00 0.00 94 1011.8
20260506051220 59 153 0.0 0.0 0.00 0.00 0.00 93 1012.2
20260506050718 59 153 0.0 0.0 0.00 0.00 0.00 93 1012.3
20260506050215 59 153 0.0 0.0 0.00 0.00 0.00 93 1012.4
20260506044706 59 153 0.0 0.0 0.00 0.00 0.00 92 1012.4
20260506044203 59 153 0.0 0.0 0.00 0.00 0.00 92 1012.6
20260506043700 60 153 0.0 0.0 0.00 0.00 0.00 92 1012.4
20260506043158 60 153 0.0 0.0 0.00 0.00 0.00 91 1012.4
20260506042657 60 153 0.0 0.0 0.00 0.00 0.00 91 1012.4
20260506042155 60 153 0.0 0.0 0.00 0.00 0.00 91 1012.3
20260506041653 60 153 0.0 0.0 0.00 0.00 0.00 90 1012.3
20260506041149 60 153 0.0 0.0 0.00 0.00 0.00 90 1012.4
20260506040647 60 153 0.0 0.0 0.00 0.00 0.00 90 1012.4
20260506040144 60 153 0.0 0.0 0.00 0.00 0.00 89 1012.5
20260506035641 60 153 0.0 0.0 0.00 0.00 0.00 89 1012.4
20260506035137 60 153 0.0 0.0 0.00 0.00 0.00 89 1012.4
20260506034635 61 153 0.0 0.0 0.00 0.00 0.00 89 1012.4
20260506034132 61 153 0.0 0.0 0.00 0.00 0.00 89 1012.3
20260506033629 61 153 0.0 0.0 0.00 0.00 0.00 89 1012.3
20260506033126 61 153 0.0 0.0 0.00 0.00 0.00 89 1012.4
20260506032623 61 153 0.0 0.0 0.00 0.00 0.00 88 1012.7
20260506032120 61 153 0.0 0.0 0.00 0.00 0.00 87 1012.6
20260506031617 61 153 0.0 0.0 0.00 0.00 0.00 87 1012.6
20260506031114 61 153 0.0 0.0 0.00 0.00 0.00 87 1012.7
20260506030612 61 153 0.0 0.0 0.00 0.00 0.00 86 1012.7
20260506030109 62 153 0.0 0.0 0.00 0.00 0.00 86 1012.7
20260506025606 62 153 0.0 0.0 0.00 0.00 0.00 85 1012.6
20260506025102 62 153 0.0 0.0 0.00 0.00 0.00 84 1012.6
20260506024559 62 153 0.0 0.0 0.00 0.00 0.00 83 1012.7
20260506024056 63 153 0.0 0.0 0.00 0.00 0.00 83 1012.6
20260506023551 63 153 0.0 0.0 0.00 0.00 0.00 82 1012.4
20260506023049 63 153 0.0 0.0 0.00 0.00 0.00 81 1012.5
20260506022541 64 153 0.0 0.0 0.00 0.00 0.00 80 1012.4
20260506022038 64 153 0.0 0.0 0.00 0.00 0.00 79 1012.3
20260506021535 64 152 1.0 1.0 0.00 0.00 0.00 78 1012.2
20260506021033 65 134 0.0 0.0 0.00 0.00 0.00 77 1012.1
20260506020530 65 133 0.0 0.0 0.00 0.00 0.00 76 1011.9
20260506020027 66 144 0.0 0.0 0.00 0.00 0.00 75 1012.1
20260506015525 66 144 0.0 0.0 0.00 0.00 0.00 74 1012.2
20260506015022 66 141 0.0 1.0 0.00 0.00 0.00 74 1012.0
20260506014519 66 171 0.0 0.0 0.00 0.00 0.00 73 1011.9
20260506014015 67 136 1.0 1.0 0.00 0.00 0.00 73 1012.0
20260506013513 67 157 0.0 0.0 0.00 0.00 0.00 73 1011.9
20260506013010 67 147 0.0 0.0 0.00 0.00 0.00 72 1012.0
20260506012505 67 158 0.0 0.0 0.00 0.00 0.00 72 1012.0
20260506012003 68 154 0.0 1.0 0.00 0.00 0.00 71 1011.8
20260506011500 68 138 1.0 1.0 0.00 0.00 0.00 70 1011.7
20260506010956 68 154 0.0 0.0 0.00 0.00 0.00 69 1011.6
20260506010456 68 140 0.0 0.0 0.00 0.00 0.00 69 1011.5
20260506005951 68 172 0.0 0.0 0.00 0.00 0.00 69 1011.9
20260506005449 68 181 1.0 2.0 0.00 0.00 0.00 69 1011.8
20260506004944 68 139 0.0 1.0 0.00 0.00 0.00 68 1011.9
20260506004442 69 169 0.0 1.0 0.00 0.00 0.00 68 1011.7
20260506003938 69 154 1.0 2.0 0.00 0.00 0.00 68 1011.6
20260506003435 69 186 1.0 1.0 0.00 0.00 0.00 67 1011.6
20260506002931 70 168 0.0 0.0 0.00 0.00 0.00 66 1011.5
20260506002427 70 153 1.0 1.0 0.00 0.00 0.00 65 1011.4
20260506001923 70 113 0.0 0.0 0.00 0.00 0.00 65 1011.5
20260506001420 71 175 0.0 1.0 0.00 0.00 0.00 64 1011.3
20260506000917 71 128 1.0 1.0 0.00 0.00 0.00 63 1011.2
20260506000416 71 191 3.0 3.0 0.00 0.00 0.00 63 1011.2
20260505235911 72 149 1.0 2.0 0.00 0.00 0.00 62 1011.2
20260505235410 72 162 0.0 1.0 0.00 0.00 0.00 61 1011.2
20260505234906 72 133 2.0 2.0 0.00 0.00 0.00 60 1011.2
20260505234404 73 104 3.0 3.0 0.00 0.00 0.00 59 1011.2
20260505233900 73 175 1.0 2.0 0.00 0.00 0.00 59 1011.0
20260505233358 73 148 6.0 7.0 0.00 0.00 0.00 58 1011.0
20260505232855 74 56 2.0 2.0 0.00 0.00 0.00 57 1011.3
20260505232353 74 160 5.0 6.0 0.00 0.00 0.00 56 1011.3
20260505231849 74 172 3.0 5.0 0.00 0.00 0.00 56 1011.2
20260505231347 75 130 5.0 7.0 0.00 0.00 0.00 55 1011.4
20260505230845 75 162 1.0 2.0 0.00 0.00 0.00 55 1011.2
20260505230342 75 109 1.0 2.0 0.00 0.00 0.00 55 1011.4
20260505225839 75 156 0.0 1.0 0.00 0.00 0.00 55 1011.1
20260505225336 76 180 3.0 3.0 0.00 0.00 0.00 54 1011.1
20260505224831 76 198 2.0 2.0 0.00 0.00 0.00 54 1011.1
20260505224329 76 145 1.0 2.0 0.00 0.00 0.00 53 1011.1
20260505223826 77 134 5.0 7.0 0.00 0.00 0.00 52 1011.2
20260505223323 77 190 1.0 2.0 0.00 0.00 0.00 52 1010.7
20260505222819 78 347 3.0 5.0 0.00 0.00 0.00 51 1011.1
20260505222315 79 193 3.0 3.0 0.00 0.00 0.00 51 1010.9
20260505221812 79 142 3.0 5.0 0.00 0.00 0.00 50 1010.9
20260505221309 80 173 3.0 5.0 0.00 0.00 0.00 50 1010.8
20260505220806 80 184 2.0 3.0 0.00 0.00 0.00 50 1010.7
20260505220303 80 214 3.0 3.0 0.00 0.00 0.00 49 1010.9
20260505215801 80 113 4.0 7.0 0.00 0.00 0.00 49 1011.0
20260505215259 80 197 2.0 2.0 0.00 0.00 0.00 50 1010.9
20260505214756 81 253 2.0 3.0 0.00 0.00 0.00 47 1010.8
20260505214253 81 193 1.0 1.0 0.00 0.00 0.00 49 1010.7
20260505213750 81 137 2.0 2.0 0.00 0.00 0.00 48 1011.0
20260505213248 81 212 5.0 8.0 0.00 0.00 0.00 47 1010.9
20260505212743 81 98 3.0 3.0 0.00 0.00 0.00 47 1011.0
20260505212241 80 102 3.0 5.0 0.00 0.00 0.00 49 1011.0
20260505211738 82 138 3.0 5.0 0.00 0.00 0.00 47 1010.9
20260505211235 81 44 3.0 3.0 0.00 0.00 0.00 49 1010.8
20260505210731 81 79 4.0 5.0 0.00 0.00 0.00 48 1010.9
20260505210228 82 182 2.0 2.0 0.00 0.00 0.00 48 1010.9
20260505205726 82 217 3.0 3.0 0.00 0.00 0.00 47 1011.0
20260505205224 82 172 3.0 6.0 0.00 0.00 0.00 48 1011.1
20260505204720 82 252 4.0 6.0 0.00 0.00 0.00 47 1010.9
20260505204218 82 254 5.0 8.0 0.00 0.00 0.00 47 1011.2
20260505203715 81 151 1.0 2.0 0.00 0.00 0.00 48 1011.1
20260505203212 82 190 5.0 8.0 0.00 0.00 0.00 46 1011.1
20260505202708 83 24 2.0 2.0 0.00 0.00 0.00 48 1010.8
20260505202204 82 221 2.0 3.0 0.00 0.00 0.00 47 1011.1
20260505201700 81 321 7.0 8.0 0.00 0.00 0.00 49 1011.3
20260505201159 80 302 2.0 5.0 0.00 0.00 0.00 49 1011.4
20260505200656 80 104 3.0 5.0 0.00 0.00 0.00 50 1011.2
20260505200153 80 159 3.0 3.0 0.00 0.00 0.00 53 1011.3
20260505195649 79 170 1.0 2.0 0.00 0.00 0.00 52 1011.4
20260505195146 79 91 2.0 3.0 0.00 0.00 0.00 51 1011.6
20260505194643 79 37 2.0 2.0 0.00 0.00 0.00 52 1011.6
20260505194139 79 356 2.0 5.0 0.00 0.00 0.00 51 1011.4
20260505193636 80 101 2.0 3.0 0.00 0.00 0.00 50 1011.9
20260505193133 81 157 1.0 1.0 0.00 0.00 0.00 49 1011.9
20260505192632 83 159 2.0 3.0 0.00 0.00 0.00 47 1011.9
20260505192129 84 33 3.0 3.0 0.00 0.00 0.00 46 1011.7
20260505191627 84 163 1.0 2.0 0.00 0.00 0.00 42 1012.0